Location: Newark
(39.9581°N, 97.2014°W)
Time: 20:38:55
(UTC+00:00)

Envisat - Pass Details

Date: 22 January 2020
Orbit: 764 x 766 km, 98.1° (Epoch: 25 February)

Event Time Altitude Azimuth Distance (km) Brightness Sun altitude
Rises 13:04:29 0° 14° (NNE) 3,240 6.2 -8.1°
Reaches altitude 10° 13:06:48 10° 16° (NNE) 2,310 5.5 -7.7°
Maximum altitude 13:11:54 76° 102° (ESE) 791 3.3 -6.7°
Drops below altitude 10° 13:16:57 10° 188° (S) 2,292 5.6 -5.8°
Sets 13:19:15 0° 190° (S) 3,214 6.4 -5.4°
